| time (UTC) | temp C | wind direction | speed KPH | gust KPH | rain 1hr cm | rain 24hr cm | rain mn cm | humidity % | barometer mb |
| 20260507213101 | 34 | 101 | 4.8 | 14.5 | 0.00 | 0.00 | 0.00 | 9 | 1009.8 |
| 20260507211546 | 33 | 0 | 4.8 | 16.1 | 0.00 | 0.00 | 0.00 | 8 | 1010.0 |
| 20260507210054 | 33 | 299 | 8.0 | 12.9 | 0.00 | 0.00 | 0.00 | 8 | 1010.2 |
| 20260507204547 | 34 | 333 | 1.6 | 12.9 | 0.00 | 0.00 | 0.00 | 8 | 1010.4 |
| 20260507203050 | 33 | 51 | 3.2 | 8.0 | 0.00 | 0.00 | 0.00 | 8 | 1010.6 |
| 20260507201549 | 33 | 0 | 3.2 | 12.9 | 0.00 | 0.00 | 0.00 | 8 | 1011.0 |
| 20260507200046 | 32 | 75 | 6.4 | 12.9 | 0.00 | 0.00 | 0.00 | 9 | 1011.1 |
| 20260507194611 | 32 | 27 | 4.8 | 16.1 | 0.00 | 0.00 | 0.00 | 10 | 1011.4 |
| 20260507193050 | 33 | 250 | 0.0 | 9.7 | 0.00 | 0.00 | 0.00 | 10 | 1011.4 |
| 20260507191550 | 32 | 0 | 3.2 | 9.7 | 0.00 | 0.00 | 0.00 | 10 | 1011.7 |
| 20260507190150 | 32 | 345 | 4.8 | 11.3 | 0.00 | 0.00 | 0.00 | 10 | 1012.0 |
| 20260507181555 | 31 | 225 | 4.8 | 8.0 | 0.00 | 0.00 | 0.00 | 11 | 1012.6 |
| 20260507180050 | 31 | 248 | 1.6 | 8.0 | 0.00 | 0.00 | 0.00 | 12 | 1012.9 |
| 20260507174554 | 30 | 0 | 1.6 | 8.0 | 0.00 | 0.00 | 0.00 | 13 | 1013.0 |
| 20260507173108 | 30 | 315 | 0.0 | 4.8 | 0.00 | 0.00 | 0.00 | 14 | 1013.1 |
| 20260507171548 | 29 | 0 | 3.2 | 8.0 | 0.00 | 0.00 | 0.00 | 16 | 1013.2 |
| 20260507170043 | 28 | 207 | 1.6 | 4.8 | 0.00 | 0.00 | 0.00 | 18 | 1013.3 |
| 20260507164550 | 28 | 0 | 1.6 | 6.4 | 0.00 | 0.00 | 0.00 | 18 | 1013.4 |
| 20260507163050 | 27 | 0 | 0.0 | 8.0 | 0.00 | 0.00 | 0.00 | 21 | 1013.6 |
| 20260507161602 | 27 | 0 | 0.0 | 4.8 | 0.00 | 0.00 | 0.00 | 21 | 1013.7 |
| 20260507160045 | 26 | 278 | 3.2 | 4.8 | 0.00 | 0.00 | 0.00 | 22 | 1013.8 |
| 20260507154543 | 26 | 233 | 0.0 | 6.4 | 0.00 | 0.00 | 0.00 | 23 | 1014.0 |
| 20260507153048 | 25 | 169 | 1.6 | 6.4 | 0.00 | 0.00 | 0.00 | 26 | 1013.9 |
| 20260507151546 | 24 | 249 | 3.2 | 8.0 | 0.00 | 0.00 | 0.00 | 27 | 1014.0 |
| 20260507150058 | 24 | 0 | 0.0 | 4.8 | 0.00 | 0.00 | 0.00 | 27 | 1013.9 |
| 20260507144553 | 23 | 0 | 0.0 | 3.2 | 0.00 | 0.00 | 0.00 | 27 | 1013.9 |
| 20260507143050 | 23 | 0 | 0.0 | 0.0 | 0.00 | 0.00 | 0.00 | 28 | 1013.9 |
| 20260507141624 | 21 | 0 | 0.0 | 0.0 | 0.00 | 0.00 | 0.00 | 31 | 1013.9 |
| 20260507140045 | 20 | 0 | 0.0 | 0.0 | 0.00 | 0.00 | 0.00 | 35 | 1013.8 |
| 20260507134549 | 19 | 0 | 0.0 | 0.0 | 0.00 | 0.00 | 0.00 | 37 | 1013.8 |
| 20260507133050 | 18 | 296 | 1.6 | 3.2 | 0.00 | 0.00 | 0.00 | 38 | 1013.6 |
| 20260507131550 | -17 | 0.0 | 0.0 | 0.00 | 0.00 | 0.00 | 1013.4 | ||
| 20260507130057 | -17 | 0.0 | 0.0 | 0.00 | 0.00 | 0.00 | 1013.3 | ||
| 20260507124543 | -17 | 0.0 | 0.0 | 0.00 | 0.00 | 0.00 | 1013.5 | ||
| 20260507123050 | -17 | 0.0 | 0.0 | 0.00 | 0.00 | 0.00 | 1013.4 | ||
| 20260507121550 | -17 | 0.0 | 0.0 | 0.00 | 0.00 | 0.00 | 1013.3 | ||
| 20260507120100 | -17 | 0.0 | 0.0 | 0.00 | 0.00 | 0.00 | 1013.3 | ||
| 20260507114546 | -17 | 0.0 | 0.0 | 0.00 | 0.00 | 0.00 | 1013.4 | ||
| 20260507113049 | -17 | 0.0 | 0.0 | 0.00 | 0.00 | 0.00 | 1013.2 | ||
| 20260507111549 | 17 | 0.0 | 0.0 | 0.00 | 0.00 | 0.00 | 100 | 1013.3 | |
| 20260507110054 | 17 | 0 | 0.0 | 0.0 | 0.00 | 0.00 | 0.00 | 41 | 1013.2 |
| 20260507104548 | 18 | 0 | 0.0 | 0.0 | 0.00 | 0.00 | 0.00 | 37 | 1013.3 |
| 20260507103044 | 18 | 0 | 0.0 | 0.0 | 0.00 | 0.00 | 0.00 | 36 | 1013.3 |
| 20260507101544 | 19 | 0 | 0.0 | 0.0 | 0.00 | 0.00 | 0.00 | 33 | 1013.5 |
| 20260507100046 | 20 | 155 | 1.6 | 4.8 | 0.00 | 0.00 | 0.00 | 31 | 1013.6 |
| 20260507094549 | 20 | 171 | 0.0 | 4.8 | 0.00 | 0.00 | 0.00 | 31 | 1013.7 |
| 20260507093050 | 20 | 158 | 0.0 | 4.8 | 0.00 | 0.00 | 0.00 | 31 | 1013.8 |
| 20260507091538 | 20 | 151 | 0.0 | 3.2 | 0.00 | 0.00 | 0.00 | 31 | 1013.9 |
| 20260507090046 | 21 | 179 | 1.6 | 6.4 | 0.00 | 0.00 | 0.00 | 30 | 1013.8 |
| 20260507084543 | 21 | 183 | 3.2 | 6.4 | 0.00 | 0.00 | 0.00 | 29 | 1013.9 |
| 20260507083042 | 21 | 169 | 3.2 | 4.8 | 0.00 | 0.00 | 0.00 | 29 | 1013.8 |
| 20260507081547 | 21 | 162 | 3.2 | 8.0 | 0.00 | 0.00 | 0.00 | 30 | 1013.9 |
| 20260507080043 | 21 | 168 | 1.6 | 4.8 | 0.00 | 0.00 | 0.00 | 30 | 1014.0 |
| 20260507074546 | 20 | 0 | 0.0 | 0.0 | 0.00 | 0.00 | 0.00 | 32 | 1014.1 |
| 20260507073104 | 20 | 0 | 0.0 | 0.0 | 0.00 | 0.00 | 0.00 | 33 | 1014.1 |
| 20260507071544 | 20 | 0 | 0.0 | 0.0 | 0.00 | 0.00 | 0.00 | 33 | 1014.0 |
| 20260507070043 | 20 | 0 | 0.0 | 0.0 | 0.00 | 0.00 | 0.00 | 33 | 1014.0 |
| 20260507064548 | 21 | 0 | 0.0 | 0.0 | 0.00 | 0.00 | 0.00 | 32 | 1013.9 |
| 20260507063057 | 22 | 0 | 0.0 | 0.0 | 0.00 | 0.00 | 0.00 | 29 | 1013.8 |
| 20260507061547 | 21 | 0 | 0.0 | 0.0 | 0.00 | 0.00 | 0.00 | 32 | 1013.8 |
| 20260507060044 | 22 | 0 | 0.0 | 0.0 | 0.00 | 0.00 | 0.00 | 30 | 1013.9 |
| 20260507054548 | 22 | 0 | 0.0 | 0.0 | 0.00 | 0.00 | 0.00 | 27 | 1013.9 |
| 20260507053042 | 23 | 0 | 0.0 | 0.0 | 0.00 | 0.00 | 0.00 | 27 | 1013.9 |
| 20260507051549 | 23 | 0 | 0.0 | 0.0 | 0.00 | 0.00 | 0.00 | 27 | 1013.8 |
| 20260507050056 | 23 | 0 | 0.0 | 0.0 | 0.00 | 0.00 | 0.00 | 27 | 1013.7 |
| 20260507044543 | 23 | 0 | 0.0 | 0.0 | 0.00 | 0.00 | 0.00 | 26 | 1013.6 |
| 20260507043050 | 23 | 0 | 0.0 | 0.0 | 0.00 | 0.00 | 0.00 | 26 | 1013.5 |
| 20260507041549 | 23 | 0 | 0.0 | 0.0 | 0.00 | 0.00 | 0.00 | 25 | 1013.3 |
| 20260507040044 | 24 | 0 | 0.0 | 0.0 | 0.00 | 0.00 | 0.00 | 23 | 1013.2 |
| 20260507034607 | 25 | 0 | 0.0 | 0.0 | 0.00 | 0.00 | 0.00 | 22 | 1013.1 |
| 20260507033101 | 25 | 0 | 0.0 | 0.0 | 0.00 | 0.00 | 0.00 | 22 | 1013.0 |
| 20260507031549 | 25 | 0 | 0.0 | 0.0 | 0.00 | 0.00 | 0.00 | 21 | 1012.8 |
| 20260507030048 | 26 | 0 | 0.0 | 0.0 | 0.00 | 0.00 | 0.00 | 21 | 1012.6 |
| 20260507024554 | 26 | 0 | 0.0 | 8.0 | 0.00 | 0.00 | 0.00 | 20 | 1012.5 |
| 20260507023048 | 26 | 46 | 6.4 | 9.7 | 0.00 | 0.00 | 0.00 | 19 | 1012.2 |
| 20260507021542 | 27 | 23 | 3.2 | 8.0 | 0.00 | 0.00 | 0.00 | 19 | 1012.1 |
| 20260507020044 | 27 | 0 | 4.8 | 11.3 | 0.00 | 0.00 | 0.00 | 18 | 1011.9 |
| 20260507014541 | 27 | 0 | 1.6 | 11.3 | 0.00 | 0.00 | 0.00 | 18 | 1011.8 |
| 20260507013050 | 28 | 35 | 3.2 | 14.5 | 0.00 | 0.00 | 0.00 | 18 | 1011.9 |
| 20260507011543 | 28 | 73 | 0.0 | 4.8 | 0.00 | 0.00 | 0.00 | 17 | 1012.0 |
| 20260507010048 | 28 | 52 | 4.8 | 11.3 | 0.00 | 0.00 | 0.00 | 17 | 1011.9 |
| 20260507004556 | 28 | 87 | 1.6 | 14.5 | 0.00 | 0.00 | 0.00 | 17 | 1011.9 |
| 20260507003050 | 28 | 57 | 3.2 | 11.3 | 0.00 | 0.00 | 0.00 | 17 | 1011.9 |
| 20260507001605 | 28 | 86 | 6.4 | 11.3 | 0.00 | 0.00 | 0.00 | 18 | 1011.8 |
| 20260507000047 | 28 | 154 | 8.0 | 12.9 | 0.00 | 0.00 | 0.00 | 18 | 1011.9 |
| 20260506234552 | 27 | 0 | 1.6 | 14.5 | 0.00 | 0.00 | 0.00 | 18 | 1011.9 |
| 20260506233047 | 28 | 45 | 6.4 | 12.9 | 0.00 | 0.00 | 0.00 | 17 | 1012.0 |
| 20260506231549 | 28 | 0 | 0.0 | 9.7 | 0.00 | 0.00 | 0.00 | 17 | 1012.2 |
| 20260506230054 | 27 | 0 | 1.6 | 16.1 | 0.00 | 0.00 | 0.00 | 19 | 1012.5 |
| 20260506224604 | 27 | 89 | 8.0 | 16.1 | 0.00 | 0.00 | 0.00 | 18 | 1012.6 |
| 20260506223042 | 27 | 31 | 8.0 | 16.1 | 0.00 | 0.00 | 0.00 | 18 | 1012.8 |
| 20260506221548 | 27 | 0 | 0.0 | 0.0 | 0.00 | 0.00 | 0.00 | 19 | 1012.9 |
| 20260506220104 | 27 | 0 | 4.8 | 16.1 | 0.00 | 0.00 | 0.00 | 19 | 1013.2 |
| 20260506214545 | 27 | 0 | 8.0 | 19.3 | 0.00 | 0.00 | 0.00 | 19 | 1013.4 |